Terminal Aerodrome Forecast
Issued by NWS Buffalo, NY

Home | Current Version | Previous Version | Text Only | Print | Product List | Glossary On
Versions: 1 2 3 4 5 6 7 8 9 10 11 12 13 14 15 16 17 18 19 20 21 22 23 24 25 26 27 28 29
000
FTUS41 KBUF 191505 AAA
TAFART
TAF AMD
KART 191505Z 1915/2012 22005KT P6SM OVC035
     FM191700 25007KT P6SM OVC015
     FM192300 VRB03KT P6SM OVC020
     FM200600 00000KT 2SM BR OVC025=

USA.gov is the U.S. government's official web portal to all federal, state and local government web resources and services.